Flag for Brazil Weather past 2 weeks in Parnaíba, Piauí, Brazil

Now
79 °F

Broken clouds.


Feels Like: 82 °F
Forecast: 79 / 91 °F
Wind: 2 mph from East

Location: Teresina Aeroporto

Current Time: Mar 2, 2015 at 8:40:55 AM

Latest Report: Mar 2, 2015 at 8:00 AM


Visibility: N/A

Pressure: 29.92 "Hg

Humidity: 84%

Dew point: 73 °F

Location of ParnaíbaLocation

Historic Weather in Parnaíba — Graph

°F

Parnaíba temperature yesterday

Maximum temperature yesterday: 90 °F (at 2:00 PM)
Minimum temperature yesterday: 73 °F (at 6:00 AM)
Average temperature yesterday: 81 °F

Past Weeks' High & Low Weather Summary

 TemperatureHumidityPressure
High93 °F (Feb 15, 3:00 PM)100% (Feb 16, 6:00 AM)29.98 "Hg (Feb 16, 6:00 AM)
Low72 °F (Feb 18, 2:00 AM)44% (Feb 15, 4:00 PM)29.71 "Hg (Feb 17, 4:00 PM)
Average80 °F82%29.86 "Hg
* Reported Feb 15 7:00 AM — Mar 2 7:00 AM, Parnaíba, Weather by CustomWeather, © 2015

Note: Actual official high and low records may vary slightly from our data, if they occured in-between our weather recording intervals... More about our weather records

Advertising

Parnaíba weather history for previous 24 hours

 ConditionsComfort  
Time TempWeatherWind HumidityBarometerVisibility
7:00 AM
Mon, Mar 2
75 °FBroken clouds.No wind89%29.89 "HgN/A
6:00 AM73 °FPartly sunny.2 mph94%29.86 "HgN/A
5:00 AM73 °FPassing clouds.2 mph100%29.86 "HgN/A
4:00 AM73 °FClear.No wind94%29.86 "Hg10 mi
3:00 AM73 °FPassing clouds.2 mph89%29.86 "HgN/A
2:00 AM73 °FPassing clouds.5 mph94%29.86 "HgN/A
1:00 AM75 °FPassing clouds.7 mph89%29.89 "HgN/A
12:00 AM77 °FPassing clouds.8 mph83%29.92 "HgN/A
11:00 PM
Sun, Mar 1
79 °FPassing clouds.8 mph84%29.92 "HgN/A
10:00 PM81 °FPassing clouds.6 mph79%29.92 "HgN/A
9:00 PM82 °FPassing clouds.6 mph79%29.89 "HgN/A
8:00 PM82 °FClear.2 mph74%29.86 "Hg10 mi
7:00 PM84 °FPassing clouds.3 mph70%29.83 "HgN/A
6:00 PM82 °FScattered clouds.8 mph74%29.80 "HgN/A
5:00 PM90 °FScattered clouds.5 mph55%29.77 "HgN/A
4:00 PM88 °FScattered clouds.5 mph55%29.77 "HgN/A
3:00 PM90 °FScattered clouds.5 mph52%29.80 "HgN/A
2:00 PM90 °FScattered clouds.3 mph52%29.83 "HgN/A
1:00 PM86 °FBroken clouds.5 mph66%29.89 "HgN/A
12:00 PM84 °FBroken clouds.5 mph70%29.92 "HgN/A
11:00 AM81 °FBroken clouds.5 mph79%29.95 "HgN/A
10:00 AM79 °FBroken clouds.5 mph79%29.95 "HgN/A
9:00 AM79 °FBroken clouds.3 mph84%29.95 "HgN/A
8:00 AM77 °FBroken clouds.5 mph94%29.92 "HgN/A
Weather by CustomWeather, © 2015

See weather overviewHow to use our weather pages